Showing default

SURCAL 159, 2872

Orbit data source: Space-Track

SURCAL 159, 2872 is a payload satellite owned by NRL (US) in LEO that was launched on Wed, 31 May 1967 UTC via a THOR SLV-2 AGENA D launch vehicle from the Air Force Western Test Range (AFWTR). Payloads include a variety of satellites, spacecraft, and rockets equipped with specific instruments for various scientific and technological missions. These include communications satellites like Starlink; space stations such as the ISS; scientific satellites like the Hubble; Earth observation satellites from companies like Planet Labs, Umbra, and HawkEye 360; GPS; miniature CubeSats for education and research; and military/defense satellites.

Loading next visibility...
SURCAL 159 details
Identifier
2872, 1967-053F
Orbit
LEO
Last TLE update2 days ago
Origin
Flag of USNRL (US)
ManufacturerNRL
MissionOperational Defense Calibration
Bus & MotorNRL 14"?, Unknown motor
Mass3 kg wet, 3 kg dry
Launch date (UTC)
1967-05-31 (58 years ago)
Launch vehicle
THOR SLV-2 AGENA D
Launch site
Air Force Western Test Range (AFWTR)
Object type
Payload
Rocket body
Debris
Shape & HBRSphere, 0.4 m
Radar Cross Section0.126 m², Medium (>0.1 m² and < 1m²)

Expand to show TLE details & history

TLE from 2 days ago
0 SURCAL 159
1 02872U 67053F   25021.99108380  .00000313  00000-0  25210-3 0  9998
2 02872  69.9747  21.4435 0003920  41.3525 318.7878 13.99398503938682
Epoch: 2025-01-21T23:47Z
Definitive object data (Epoch: 2025-01-21T23:47:09.64Z)
Latitude-0.00006°
Longitude-96.93606°
Altitude896.048 km
Speed7.405 km/s
True Right ascension01h 25m 46s
True Declination0° 00' 00"
Sunlit
Object was in daylight at TLE epoch
Visualization TLE readout
Latitude-8.80789°
Longitude-103.68987°
Altitude897.862 km
Speed7.404 km/s
Apparent Right ascension02h 20m 38s
Apparent Declination-25° 19' 47"
Sunlit
Object is in daylight
Visualization observer readout
Local Sidereal Time16:24:11
Azimuth69.925° E
Elevation-60.394°
Doppler factor1
Orbital elements
Apogee altitude896.772 km
Perigee altitude891.071 km
Semi-major axis7,272.058 km
Eccentricity0.000392
Inclination69.9747°
RAAN21.4435°
Arg. of periapsis41.3525°
True anomaly318.75819°
Mean anomaly318.7878°
Eccentric anomaly318.773°
Mean motion3.49991 °/min
BSTAR0.0002521
Orbital period102.86 mins
Loading maneuver chart data...
Loading historical data...
Loading historical data...
Loading historical data...
Loading historical data...
Loading historical data...
Loading historical data...
Loading historical data...

SURCAL 159 Visibility forecast

Observer location: undefined°, undefined

Span
Click to sort rows by Start time (UTC) header in descending order
Start Az.
Max El. time (UTC)
Max El. Az.
Max El.
End time (UTC)
End Az.
9 mins2025-01-23 23:55:50.312Z156.342° SSE2025-01-23 23:59:50.312Z110.823° ESE24.107°2025-01-24 00:04:50.312Z49.734° ENE
10 mins2025-01-24 01:40:50.312Z233.039° WSW2025-01-24 01:45:50.312Z314.06° NW34.574°2025-01-24 01:50:50.312Z12.234° NNE
5 mins2025-01-24 08:57:50.312Z23.374° NE2025-01-24 08:59:50.312Z47.359° ENE17.095°2025-01-24 09:02:50.312Z81.812° E
10 mins2025-01-24 10:41:50.312Z331.637° NNW2025-01-24 10:45:50.312Z266.971° W44.427°2025-01-24 10:51:50.312Z162.163° S
|